Weather History for KMRF - March, 2014

Change the Weather History Date:

Tuesday, March 18, 2014

  Actual Average Record
Temperature  
Mean Temperature 54 °F -  
Max Temperature 75 °F 66 °F 84 °F (2011)
Min Temperature 33 °F 35 °F 23 °F (2009)
Degree Days  
Heating Degree Days 11    
Growing Degree Days 4 (Base 50)    
Moisture  
Dew Point 12 °F    
Average Humidity 20    
Maximum Humidity 44    
Minimum Humidity 10    
Precipitation  
Precipitation 0.00 in - - ()
Sea Level Pressure  
Sea Level Pressure 29.86 in    
Wind  
Wind Speed 9 mph (WSW)    
Max Wind Speed 29 mph    
Max Gust Speed 32 mph    
Visibility 10 miles    
Events      
Averages and records for this station are not official NWS values.
T = Trace of Precipitation, MM = Missing Value Source: NWS Daily Summary

Daily Weather History Graph

Daily Weather History Graph

Search for Another Location

Airport or City:

Trip Planner

Search our weather history database for the weather conditions in past years. The results will help you decide how hot, cold, wet, or windy it might be!

Date:

Astronomy

Mar. 18, 2014 Rise Set
Actual Time 8:02 AM CDT 8:06 PM CDT
Civil Twilight 7:38 AM CDT 8:30 PM CDT
Nautical Twilight 7:10 AM CDT 8:58 PM CDT
Astronomical Twilight 6:42 AM CDT 9:26 PM CDT
Moon 10:14 PM CDT (3/18) 9:02 AM CDT (3/18)
Length of Visible Light 12h 51m
Length of Day
12h 04m
Waning Gibbous, 96% of the Moon is Illuminated
Mar 18
Waning Gibbous
Mar 23
Last Quarter
Mar 30
New
Apr 7
First Quarter
Apr 15
Full

Hourly Weather History & Observations

Time (CDT) Temp. Windchill Dew Point Humidity Pressure Visibility Wind Dir Wind Speed Gust Speed Precip Events Conditions
12:15 AM 41.0 °F - 12.2 °F 31% 29.79 in 10.0 mi Calm Calm - N/A   Clear
12:35 AM 42.8 °F 40.1 °F 12.2 °F 29% 29.79 in 10.0 mi SSE 4.6 mph - N/A   Clear
12:55 AM 44.6 °F - 12.2 °F 27% 29.79 in 10.0 mi Calm Calm - N/A   Clear
1:15 AM 35.6 °F - 12.2 °F 38% 29.79 in 10.0 mi Calm Calm - N/A   Clear
1:35 AM 33.8 °F - 14.0 °F 44% 29.79 in 10.0 mi Calm Calm - N/A   Clear
1:55 AM 46.4 °F 42.9 °F 15.8 °F 29% 29.77 in 10.0 mi South 6.9 mph - N/A   Clear
2:15 AM 48.2 °F - 14.0 °F 25% 29.77 in 10.0 mi SSW 15.0 mph - N/A   Clear
2:35 AM 51.8 °F - 14.0 °F 22% 29.76 in 10.0 mi SSW 13.8 mph - N/A   Clear
2:55 AM 51.8 °F - 12.2 °F 21% 29.76 in 10.0 mi South 16.1 mph - N/A   Clear
3:15 AM 51.8 °F - 12.2 °F 21% 29.76 in 10.0 mi South 12.7 mph - N/A   Clear
3:35 AM 48.2 °F - 14.0 °F 25% 29.76 in 10.0 mi South 12.7 mph - N/A   Clear
3:55 AM 51.8 °F - 14.0 °F 22% 29.76 in 10.0 mi SSW 13.8 mph - N/A   Clear
4:15 AM 46.4 °F 41.5 °F 12.2 °F 25% 29.76 in 10.0 mi SSW 10.4 mph - N/A   Clear
4:35 AM 46.4 °F 45.2 °F 12.2 °F 25% 29.76 in 10.0 mi SSW 3.5 mph - N/A   Clear
4:55 AM 44.6 °F - 14.0 °F 29% 29.76 in 10.0 mi Calm Calm - N/A   Clear
5:15 AM 39.2 °F - 12.2 °F 33% 29.76 in 10.0 mi Calm Calm - N/A   Clear
5:35 AM 37.4 °F - 14.0 °F 38% 29.77 in 10.0 mi Calm Calm - N/A   Clear
5:55 AM 41.0 °F 37.1 °F 15.8 °F 36% 29.77 in 10.0 mi SSW 5.8 mph 20.7 mph N/A   Clear
6:15 AM 44.6 °F 43.1 °F 12.2 °F 27% 29.78 in 10.0 mi SW 3.5 mph - N/A   Clear
6:35 AM 42.8 °F 40.1 °F 12.2 °F 29% 29.78 in 10.0 mi SE 4.6 mph - N/A   Clear
6:55 AM 37.4 °F 33.8 °F 12.2 °F 36% 29.79 in 10.0 mi SE 4.6 mph - N/A   Clear
7:15 AM 41.0 °F 38.0 °F 14.0 °F 33% 29.79 in 10.0 mi ESE 4.6 mph - N/A   Clear
7:35 AM 39.2 °F 35.0 °F 12.2 °F 33% 29.80 in 10.0 mi South 5.8 mph - N/A   Clear
7:55 AM 41.0 °F 35.8 °F 12.2 °F 31% 29.80 in 10.0 mi SE 8.1 mph - N/A   Clear
8:15 AM 42.8 °F 39.3 °F 12.2 °F 29% 29.81 in 10.0 mi SSE 5.8 mph - N/A   Clear
8:35 AM 42.8 °F 38.0 °F 12.2 °F 29% 29.82 in 10.0 mi SE 8.1 mph - N/A   Clear
8:55 AM 46.4 °F 42.9 °F 12.2 °F 25% 29.83 in 10.0 mi SSE 6.9 mph - N/A   Clear
9:15 AM 48.2 °F - 12.2 °F 24% 29.84 in 10.0 mi SSE 6.9 mph - N/A   Clear
9:35 AM 51.8 °F - 14.0 °F 22% 29.85 in 10.0 mi WSW 9.2 mph - N/A   Clear
9:55 AM 62.6 °F - 12.2 °F 14% 29.86 in 10.0 mi WSW 15.0 mph - N/A   Clear
10:15 AM 62.6 °F - 12.2 °F 14% 29.86 in 10.0 mi West 18.4 mph 26.5 mph N/A   Clear
10:35 AM 64.4 °F - 12.2 °F 13% 29.87 in 10.0 mi West 28.8 mph - N/A   Clear
10:55 AM 66.2 °F - 10.4 °F 11% 29.88 in 10.0 mi West 20.7 mph 26.5 mph N/A   Clear
11:15 AM 66.2 °F - 10.4 °F 11% 29.88 in 10.0 mi West 24.2 mph 32.2 mph N/A   Clear
11:35 AM 66.2 °F - 10.4 °F 11% 29.89 in 10.0 mi West 23.0 mph 29.9 mph N/A   Clear
11:55 AM 68.0 °F - 12.2 °F 12% 29.89 in 10.0 mi WSW 23.0 mph 29.9 mph N/A   Clear
12:15 PM 69.8 °F - 12.2 °F 11% 29.89 in 10.0 mi WSW 21.9 mph 27.6 mph N/A   Clear
12:35 PM 69.8 °F - 12.2 °F 11% 29.89 in 10.0 mi West 18.4 mph 27.6 mph N/A   Clear
12:55 PM 69.8 °F - 12.2 °F 11% 29.89 in 10.0 mi West 18.4 mph 27.6 mph N/A   Clear
1:15 PM 69.8 °F - 12.2 °F 11% 29.89 in 10.0 mi West 25.3 mph - N/A   Clear
1:35 PM 69.8 °F - 12.2 °F 11% 29.89 in 10.0 mi West 15.0 mph 19.6 mph N/A   Clear
1:55 PM 71.6 °F - 14.0 °F 11% 29.88 in 10.0 mi West 20.7 mph 26.5 mph N/A   Clear
2:15 PM 73.4 °F - 14.0 °F 10% 29.87 in 10.0 mi WNW 23.0 mph 29.9 mph N/A   Clear
2:35 PM 73.4 °F - 15.8 °F 11% 29.88 in 10.0 mi West 18.4 mph 29.9 mph N/A   Clear
2:55 PM 73.4 °F - 15.8 °F 11% 29.87 in 10.0 mi West 20.7 mph 32.2 mph N/A   Clear
3:15 PM 73.4 °F - 15.8 °F 11% 29.87 in 10.0 mi West 24.2 mph 31.1 mph N/A   Clear
3:35 PM 73.4 °F - 15.8 °F 11% 29.87 in 10.0 mi West 17.3 mph 29.9 mph N/A   Clear
3:55 PM 73.4 °F - 15.8 °F 11% 29.87 in 10.0 mi West 26.5 mph - N/A   Clear
4:15 PM 73.4 °F - 15.8 °F 11% 29.87 in 10.0 mi WSW 12.7 mph 29.9 mph N/A   Clear
4:35 PM 73.4 °F - 15.8 °F 11% 29.87 in 10.0 mi WSW 16.1 mph 25.3 mph N/A   Clear
4:55 PM 73.4 °F - 15.8 °F 11% 29.87 in 10.0 mi West 18.4 mph 25.3 mph N/A   Clear
5:15 PM 75.2 °F - 15.8 °F 11% 29.88 in 10.0 mi WSW 20.7 mph 27.6 mph N/A   Clear
5:35 PM 75.2 °F - 15.8 °F 11% 29.88 in 10.0 mi West 17.3 mph 24.2 mph N/A   Clear
5:55 PM 73.4 °F - 15.8 °F 11% 29.88 in 10.0 mi West 17.3 mph 25.3 mph N/A   Clear
6:15 PM 73.4 °F - 15.8 °F 11% 29.89 in 10.0 mi WNW 18.4 mph 27.6 mph N/A   Clear
6:35 PM 73.4 °F - 15.8 °F 11% 29.89 in 10.0 mi West 24.2 mph 27.6 mph N/A   Clear
6:55 PM 71.6 °F - 14.0 °F 11% 29.90 in 10.0 mi West 17.3 mph 25.3 mph N/A   Clear
7:15 PM 71.6 °F - 12.2 °F 10% 29.90 in 10.0 mi West 19.6 mph - N/A   Clear
7:35 PM 69.8 °F - 12.2 °F 11% 29.91 in 10.0 mi West 13.8 mph 21.9 mph N/A   Clear
7:55 PM 66.2 °F - 10.4 °F 11% 29.92 in 10.0 mi West 11.5 mph - N/A   Clear
8:15 PM 62.6 °F - 8.6 °F 12% 29.93 in 10.0 mi West 9.2 mph - N/A   Clear
8:35 PM 57.2 °F - 5.0 °F 12% 29.93 in 10.0 mi NW 6.9 mph - N/A   Clear
8:55 PM 53.6 °F - 1.4 °F 12% 29.93 in 10.0 mi NW 4.6 mph - N/A   Clear
9:15 PM 51.8 °F - 3.2 °F 14% 29.94 in 10.0 mi North 4.6 mph - N/A   Clear
9:35 PM 46.4 °F 43.5 °F 6.8 °F 20% 29.95 in 10.0 mi North 5.8 mph - N/A   Clear
9:55 PM 46.4 °F 43.5 °F 8.6 °F 22% 29.96 in 10.0 mi North 5.8 mph - N/A   Clear
10:15 PM 44.6 °F 40.2 °F 6.8 °F 21% 29.97 in 10.0 mi North 8.1 mph - N/A   Clear
10:35 PM 42.8 °F 38.6 °F 6.8 °F 23% 29.97 in 10.0 mi NNW 6.9 mph - N/A   Clear
10:55 PM 42.8 °F 41.1 °F 8.6 °F 25% 29.98 in 10.0 mi North 3.5 mph - N/A   Clear
11:15 PM 44.6 °F 41.4 °F 8.6 °F 23% 29.99 in 10.0 mi North 5.8 mph - N/A   Clear
11:35 PM 44.6 °F 40.7 °F 10.4 °F 25% 29.99 in 10.0 mi NNE 6.9 mph - N/A   Clear
11:55 PM 44.6 °F 40.2 °F 6.8 °F 21% 29.99 in 10.0 mi NNW 8.1 mph - N/A   Clear